DW7731 Weather Reports


Display with metric or nautical units.
time (UTC)temp
F
wind
direction
speed
MPH
gust
MPH
rain 1hr
in
rain 24hr
in
rain mn
in
humidity
%
barometer
mb
20260507024104 57 182 0.0 0.0 0.03 0.35 0.35 99 1009.3
20260507023604 57 182 0.0 0.0 0.02 0.34 0.34 99 1009.1
20260507023104 57 182 0.0 0.0 0.01 0.33 0.33 99 1009.1
20260507022604 57 182 0.0 0.0 0.00 0.32 0.32 99 1009.1
20260507022104 57 182 0.0 0.0 0.00 0.32 0.32 99 1009.1
20260507021604 57 182 0.0 0.0 0.00 0.32 0.32 99 1009.1
20260507021104 57 182 0.0 0.0 0.00 0.32 0.32 99 1009.1
20260507020604 57 182 0.0 0.0 0.00 0.32 0.32 99 1009.1
20260507020104 57 182 0.0 0.0 0.00 0.32 0.32 99 1008.8
20260507015604 56 182 0.0 0.0 0.00 0.32 0.32 99 1009.1
20260507015104 56 182 0.0 0.0 0.00 0.32 0.32 99 1009.1
20260507014104 56 182 0.0 0.0 0.00 0.32 0.32 99 1009.1
20260507013605 56 182 0.0 0.0 0.00 0.32 0.32 99 1009.1
20260507012604 56 182 0.0 0.0 0.00 0.32 0.32 99 1009.1
20260507012105 56 182 0.0 0.0 0.00 0.32 0.32 99 1009.1
20260507011104 56 182 0.0 0.0 0.00 0.32 0.32 99 1009.1
20260507005604 56 182 0.0 0.0 0.00 0.32 0.32 99 1009.1
20260507005104 56 182 0.0 0.0 0.00 0.32 0.32 99 1009.1
20260507004604 56 182 0.0 0.0 0.00 0.32 0.32 99 1009.1
20260507004104 56 182 0.0 0.0 0.00 0.32 0.32 99 1009.1
20260507003604 56 182 0.0 0.0 0.00 0.32 0.32 99 1009.1
20260507003104 56 182 0.0 0.0 0.00 0.32 0.32 99 1009.1
20260507002104 56 182 0.0 0.0 0.00 0.32 0.32 98 1009.1
20260507001604 56 182 0.0 0.0 0.00 0.32 0.32 98 1009.1
20260507001104 56 182 0.0 0.0 0.00 0.32 0.32 98 1009.1
20260507000605 56 182 0.0 0.0 0.00 0.32 0.32 98 1009.1
20260506235604 56 182 0.0 0.0 0.00 0.32 0.32 98 1009.1
20260506235103 56 182 0.0 0.0 0.02 0.32 0.32 98 1008.8
20260506234604 56 182 0.0 0.0 0.03 0.32 0.32 98 1008.8
20260506234104 56 182 0.0 0.0 0.04 0.32 0.32 98 1008.8
20260506233604 56 182 0.0 0.0 0.04 0.32 0.32 98 1008.8
20260506233104 56 182 0.0 0.0 0.04 0.32 0.32 98 1008.8
20260506232604 56 182 0.0 0.0 0.05 0.32 0.32 98 1008.5
20260506232104 56 182 0.0 0.0 0.06 0.32 0.32 98 1008.5
20260506231105 56 182 0.0 0.0 0.08 0.32 0.32 98 1008.5
20260506230604 56 182 0.0 0.0 0.08 0.32 0.32 98 1008.5
20260506230104 56 182 0.0 0.0 0.08 0.32 0.32 98 1008.8
20260506225104 56 182 0.0 0.0 0.06 0.30 0.30 98 1008.8
20260506224604 57 182 0.0 0.0 0.05 0.29 0.29 98 1008.8
20260506224104 56 182 0.0 0.0 0.04 0.28 0.28 98 1008.5
20260506223604 57 182 0.0 0.0 0.04 0.28 0.28 97 1008.8
20260506222604 57 182 0.0 0.0 0.04 0.27 0.27 97 1008.5
20260506221604 57 182 0.0 0.0 0.04 0.26 0.26 97 1008.5
20260506221104 57 182 0.0 0.0 0.02 0.24 0.24 97 1008.8
20260506215604 57 182 0.0 0.0 0.06 0.24 0.24 97 1008.8
20260506215104 57 182 0.0 0.0 0.07 0.24 0.24 97 1008.5
20260506214604 57 182 0.0 0.0 0.08 0.24 0.24 97 1008.8
20260506214104 57 182 0.0 0.0 0.08 0.24 0.24 97 1008.8
20260506213604 57 182 0.0 0.0 0.08 0.24 0.24 97 1008.8
20260506213104 57 182 0.0 0.0 0.08 0.24 0.24 97 1008.8
20260506212605 57 182 0.0 0.0 0.08 0.23 0.23 97 1008.8
20260506212104 57 182 0.0 0.0 0.08 0.22 0.22 97 1008.8
20260506211604 57 182 0.0 0.0 0.08 0.22 0.22 97 1008.8
20260506211104 57 182 0.0 0.0 0.08 0.22 0.22 97 1009.1
20260506210605 57 182 0.0 0.0 0.06 0.20 0.20 96 1009.1
20260506205604 57 182 0.0 0.0 0.04 0.18 0.18 96 1009.1
20260506205104 57 182 0.0 0.0 0.04 0.17 0.17 96 1009.1
20260506204604 57 182 0.0 0.0 0.03 0.16 0.16 96 1009.1
20260506204103 57 182 0.0 0.0 0.03 0.16 0.16 96 1009.1
20260506203604 57 182 0.0 0.0 0.03 0.16 0.16 96 1009.1
20260506203104 57 182 0.0 0.0 0.03 0.16 0.16 96 1009.1
20260506202605 57 182 0.0 0.0 0.02 0.15 0.15 96 1009.4
20260506202104 57 182 0.0 0.0 0.01 0.14 0.14 96 1009.2
20260506201604 57 182 0.0 0.0 0.02 0.14 0.14 96 1009.1
20260506201104 58 182 0.0 0.0 0.02 0.14 0.14 96 1009.1
20260506200604 58 182 0.0 0.0 0.02 0.14 0.14 96 1009.1
20260506195604 58 182 0.0 0.0 0.03 0.14 0.14 95 1009.5
20260506195104 58 182 0.0 0.0 0.03 0.13 0.13 95 1009.5
20260506194104 57 182 0.0 0.0 0.04 0.13 0.13 95 1009.8
20260506193604 57 182 0.0 0.0 0.04 0.13 0.13 95 1009.8
20260506193104 58 182 0.0 0.0 0.04 0.13 0.13 95 1009.9
20260506192104 58 182 0.0 0.0 0.06 0.13 0.13 95 1009.8
20260506191604 58 182 0.0 0.0 0.06 0.12 0.12 95 1009.8
20260506191104 58 182 0.0 0.0 0.08 0.12 0.12 94 1009.8
20260506190604 58 182 0.0 0.0 0.09 0.12 0.12 94 1010.2
20260506190104 58 182 0.0 0.0 0.10 0.12 0.12 94 1010.2
20260506185604 58 182 0.0 0.0 0.09 0.11 0.11 94 1010.2
20260506185104 58 182 0.0 0.0 0.09 0.10 0.10 93 1010.2
20260506183604 59 182 0.0 0.0 0.09 0.09 0.09 93 1009.8
20260506183104 59 182 0.0 0.0 0.09 0.09 0.09 93 1010.2
20260506182604 59 182 0.0 0.0 0.08 0.08 0.08 92 1010.2
20260506182103 59 182 0.0 0.0 0.07 0.07 0.07 92 1010.2
20260506181104 60 182 0.0 0.0 0.04 0.04 0.04 91 1010.5
20260506180604 60 182 0.0 0.0 0.03 0.03 0.03 90 1010.5
20260506180104 61 182 0.0 0.0 0.02 0.02 0.02 90 1010.5
20260506175604 61 182 0.0 0.0 0.02 0.02 0.02 89 1010.8
20260506174604 61 182 0.0 0.0 0.01 0.01 0.01 87 1010.8
20260506174103 62 182 0.0 0.0 0.00 0.00 0.00 86 1010.8
20260506173104 63 182 0.0 0.0 0.00 0.00 0.00 83 1011.2
20260506172604 64 182 0.0 0.0 0.00 0.00 0.00 81 1011.2
20260506172104 65 182 0.0 0.0 0.00 0.00 0.00 80 1011.2
20260506171604 65 182 0.0 0.0 0.00 0.00 0.00 77 1011.2
20260506171104 66 182 0.0 0.0 0.00 0.00 0.00 75 1011.2
20260506170604 67 182 0.0 0.0 0.00 0.00 0.00 74 1011.2
20260506170103 68 182 0.0 0.0 0.00 0.00 0.00 71 1011.2
20260506165604 68 182 0.0 0.0 0.00 0.00 0.00 71 1010.8
20260506165104 68 182 0.0 0.0 0.00 0.00 0.00 71 1010.8
20260506164604 68 182 0.0 0.0 0.00 0.00 0.00 70 1010.8
20260506164104 68 182 0.0 0.0 0.00 0.00 0.00 70 1010.8
20260506163603 68 182 0.0 0.0 0.00 0.00 0.00 71 1010.8
20260506163104 68 182 0.0 0.0 0.00 0.00 0.00 72 1010.8
20260506162604 68 182 0.0 0.0 0.00 0.00 0.00 71 1011.2
20260506162104 68 182 0.0 0.0 0.00 0.00 0.00 69 1011.2
20260506161604 68 182 0.0 0.0 0.00 0.00 0.00 72 1011.2
20260506160604 68 182 0.0 0.0 0.00 0.00 0.00 70 1011.5
20260506160104 69 182 0.0 0.0 0.00 0.00 0.00 69 1011.2
20260506155604 69 182 0.0 0.0 0.00 0.00 0.00 68 1011.2
20260506154604 69 182 0.0 0.0 0.00 0.00 0.00 68 1011.5
20260506154104 69 182 0.0 0.0 0.00 0.00 0.00 69 1011.5
20260506153604 69 182 0.0 0.0 0.00 0.00 0.00 69 1011.5
20260506153104 69 182 0.0 0.0 0.00 0.00 0.00 69 1011.5
20260506152104 70 182 0.0 0.0 0.00 0.00 0.00 67 1011.9
20260506151604 69 182 0.0 0.0 0.00 0.00 0.00 69 1011.9
20260506151104 69 182 0.0 0.0 0.00 0.00 0.00 70 1011.9
20260506150604 69 182 0.0 0.0 0.00 0.00 0.00 71 1011.9
20260506150104 69 182 0.0 0.0 0.00 0.00 0.00 69 1011.9
20260506145604 69 182 0.0 0.0 0.00 0.00 0.00 69 1011.9
20260506145104 69 182 0.0 0.0 0.00 0.00 0.00 70 1012.2
20260506144604 69 182 0.0 0.0 0.00 0.00 0.00 69 1011.9
20260506143604 68 182 0.0 0.0 0.00 0.00 0.00 74 1012.2
20260506143104 67 182 0.0 0.0 0.00 0.00 0.00 72 1012.2
20260506142604 66 182 0.0 0.0 0.00 0.00 0.00 75 1012.2
20260506142105 66 182 0.0 0.0 0.00 0.00 0.00 75 1012.2
20260506141604 66 182 0.0 0.0 0.00 0.00 0.00 75 1012.2
20260506141105 66 182 0.0 0.0 0.00 0.00 0.00 75 1011.9
20260506140604 66 182 0.0 0.0 0.00 0.00 0.00 75 1012.2
20260506140103 67 182 0.0 0.0 0.00 0.00 0.00 74 1012.2
20260506135604 67 182 0.0 0.0 0.00 0.00 0.00 75 1011.9
20260506135104 67 182 0.0 0.0 0.00 0.00 0.00 75 1011.9
20260506134104 67 182 0.0 0.0 0.00 0.00 0.00 79 1011.9
20260506133604 67 182 0.0 0.0 0.00 0.00 0.00 77 1012.2
20260506133104 66 182 0.0 0.0 0.00 0.00 0.00 77 1011.9
20260506132604 66 182 0.0 0.0 0.00 0.00 0.00 77 1012.1
20260506132104 66 182 0.0 0.0 0.00 0.00 0.00 78 1012.2
20260506131604 65 182 0.0 0.0 0.00 0.00 0.00 79 1012.2
20260506131104 64 182 0.0 0.0 0.00 0.00 0.00 81 1012.2
20260506130604 64 182 0.0 0.0 0.00 0.00 0.00 81 1012.4
20260506130103 64 182 0.0 0.0 0.00 0.00 0.00 80 1012.5
20260506125604 64 182 0.0 0.0 0.00 0.00 0.00 80 1012.5
20260506124604 64 182 0.0 0.0 0.00 0.00 0.00 81 1012.5
20260506124103 63 182 0.0 0.0 0.00 0.00 0.00 82 1012.5
20260506123604 62 182 0.0 0.0 0.00 0.00 0.00 84 1012.5
20260506123104 62 182 0.0 0.0 0.00 0.00 0.00 83 1012.5
20260506122604 62 182 0.0 0.0 0.00 0.00 0.00 84 1012.5
20260506122104 62 182 0.0 0.0 0.00 0.00 0.00 84 1012.5
20260506121604 62 182 0.0 0.0 0.00 0.00 0.00 85 1012.5
20260506121104 61 182 0.0 0.0 0.00 0.00 0.00 87 1012.5
20260506120604 60 182 0.0 0.0 0.00 0.00 0.00 88 1012.5
20260506120104 60 182 0.0 0.0 0.00 0.00 0.00 89 1012.5
20260506115604 60 182 0.0 0.0 0.00 0.00 0.00 89 1012.5
20260506115103 59 182 0.0 0.0 0.00 0.00 0.00 89 1012.5
20260506114104 59 182 0.0 0.0 0.00 0.00 0.00 90 1012.2
20260506113604 58 182 0.0 0.0 0.00 0.00 0.00 91 1012.5
20260506113104 58 182 0.0 0.0 0.00 0.00 0.00 92 1012.5
20260506112604 57 182 0.0 0.0 0.00 0.00 0.00 94 1012.9
20260506112104 56 182 0.0 0.0 0.00 0.00 0.00 94 1012.9
20260506111604 56 182 0.0 0.0 0.00 0.00 0.00 94 1012.9
20260506111103 56 182 0.0 0.0 0.00 0.00 0.00 94 1013.2
20260506110604 56 182 0.0 0.0 0.00 0.00 0.00 94 1013.2
20260506105104 55 182 0.0 0.0 0.00 0.00 0.00 95 1012.9
20260506104603 55 182 0.0 0.0 0.00 0.00 0.00 95 1012.9
20260506104104 54 182 0.0 0.0 0.00 0.00 0.00 95 1012.9
20260506103604 54 182 0.0 0.0 0.00 0.00 0.00 95 1012.9
20260506102604 54 182 0.0 0.0 0.00 0.00 0.00 95 1012.5
20260506102103 54 182 0.0 0.0 0.00 0.00 0.00 95 1012.5
20260506101604 54 182 0.0 0.0 0.00 0.00 0.00 95 1012.9
20260506101104 54 182 0.0 0.0 0.00 0.00 0.00 94 1012.5
20260506100603 54 182 0.0 0.0 0.00 0.00 0.00 94 1012.9
20260506095604 54 182 0.0 0.0 0.00 0.00 0.00 94 1012.5
20260506095104 54 182 0.0 0.0 0.00 0.00 0.00 94 1012.5
20260506094604 54 182 0.0 0.0 0.00 0.00 0.00 94 1012.5
20260506094104 54 182 0.0 0.0 0.00 0.00 0.00 94 1012.9
20260506093604 54 182 0.0 0.0 0.00 0.00 0.00 94 1012.5
20260506093104 54 182 0.0 0.0 0.00 0.00 0.00 94 1012.9
20260506092603 54 182 0.0 0.0 0.00 0.00 0.00 94 1012.9
20260506091604 54 182 0.0 0.0 0.00 0.00 0.00 93 1012.5
20260506090604 54 182 0.0 0.0 0.00 0.00 0.00 93 1012.5
20260506090104 55 182 0.0 0.0 0.00 0.00 0.00 93 1012.9
20260506085604 55 182 0.0 0.0 0.00 0.00 0.00 93 1012.9
20260506084604 55 182 0.0 0.0 0.00 0.00 0.00 92 1012.9
20260506084103 55 182 0.0 0.0 0.00 0.00 0.00 92 1012.9
20260506083604 55 182 0.0 0.0 0.00 0.00 0.00 92 1012.9
20260506083103 55 182 0.0 0.0 0.00 0.00 0.00 92 1012.5
20260506082603 55 182 0.0 0.0 0.00 0.00 0.00 91 1012.9
20260506082103 56 182 0.0 0.0 0.00 0.00 0.00 91 1012.9
20260506081604 55 182 0.0 0.0 0.00 0.00 0.00 91 1012.9
20260506081104 55 182 0.0 0.0 0.00 0.00 0.00 91 1012.9
20260506080104 55 182 0.0 0.0 0.00 0.00 0.00 91 1012.9
20260506072604 55 182 0.0 0.0 0.00 0.00 0.00 91 1012.9
20260506072103 55 182 0.0 0.0 0.00 0.00 0.00 91 1012.9
20260506071104 55 182 0.0 0.0 0.00 0.00 0.00 90 1012.9
20260506070105 55 182 0.0 0.0 0.00 0.00 0.00 90 1012.9
20260506062105 56 182 0.0 0.0 0.00 0.00 0.00 88 1012.9
20260506061605 56 182 0.0 0.0 0.00 0.00 0.00 88 1012.9
20260506061105 56 182 0.0 0.0 0.00 0.00 0.00 88 1012.9
20260506060105 57 182 0.0 0.0 0.00 0.00 0.00 87 1012.9
20260506051105 59 182 0.0 0.0 0.00 0.00 0.00 83 1013.2
20260506050605 59 182 0.0 0.0 0.00 0.00 0.00 83 1013.2
20260506050105 59 182 0.0 0.0 0.00 0.00 0.00 83 1013.2
20260506045106 59 182 0.0 0.0 0.00 0.00 0.00 83 1013.2
20260506044605 58 182 0.0 0.0 0.00 0.00 0.00 83 1013.2
20260506044105 58 182 0.0 0.0 0.00 0.00 0.00 83 1013.2
20260506043605 58 182 0.0 0.0 0.00 0.00 0.00 82 1013.2
20260506043105 58 182 0.0 0.0 0.00 0.00 0.00 82 1013.2
20260506042605 58 182 0.0 0.0 0.00 0.00 0.00 82 1013.2
20260506042105 58 182 0.0 0.0 0.00 0.00 0.00 81 1013.2
20260506041605 58 182 0.0 0.0 0.00 0.00 0.00 81 1013.2
20260506041105 58 182 0.0 0.0 0.00 0.00 0.00 81 1013.2
20260506040605 58 182 0.0 0.0 0.00 0.00 0.00 81 1013.2
20260506040105 58 182 0.0 0.0 0.00 0.00 0.00 81 1013.2
20260506035605 58 182 0.0 0.0 0.00 0.00 0.00 80 1013.2
20260506035105 58 182 0.0 0.0 0.00 0.00 0.00 80 1013.2
20260506034606 58 182 0.0 0.0 0.00 0.00 0.00 80 1013.2
20260506034105 58 182 0.0 0.0 0.00 0.00 0.00 80 1013.2
20260506033605 58 182 0.0 0.0 0.00 0.00 0.00 79 1013.2
20260506033105 58 182 0.0 0.0 0.00 0.00 0.00 79 1013.2
20260506032605 58 182 0.0 0.0 0.00 0.00 0.00 80 1013.2
20260506032105 58 182 0.0 0.0 0.00 0.00 0.00 79 1013.2
20260506031605 58 182 0.0 0.0 0.00 0.00 0.00 80 1013.2
20260506031105 58 182 0.0 0.0 0.00 0.00 0.00 80 1013.2
20260506030605 58 182 0.0 0.0 0.00 0.00 0.00 80 1013.2
20260506030106 58 182 0.0 0.0 0.00 0.00 0.00 80 1013.2
20260506025605 58 182 0.0 0.0 0.00 0.00 0.00 80 1013.2
20260506025105 58 182 0.0 0.0 0.00 0.00 0.00 80 1013.2
20260506024605 58 182 0.0 0.0 0.00 0.00 0.00 80 1013.2